Weather History for KLRO - November, 2013

Change the Weather History Date:

Saturday, November 16, 2013

  Actual Average (KCHS) Record (KCHS)
Temperature  
Mean Temperature 67 °F 59 °F  
Max Temperature 77 °F 70 °F 85 °F (1958)
Min Temperature 55 °F 47 °F 22 °F (1940)
Degree Days  
Heating Degree Days 0 7  
Month to date heating degree days 94  
Since 1 July heating degree days 163  
Cooling Degree Days 2 1  
Month to date cooling degree days 21  
Year to date cooling degree days 2285  
Growing Degree Days 17 (Base 50)    
Moisture  
Dew Point 63 °F    
Average Humidity 98    
Maximum Humidity 100    
Minimum Humidity 83    
Precipitation  
Precipitation 0.00 in 0.08 in 1.32 in (1994)
Month to date precipitation 1.31  
Year to date precipitation 46.80  
Sea Level Pressure  
Sea Level Pressure 30.19 in    
Wind  
Wind Speed 1 mph (East)    
Max Wind Speed 7 mph    
Max Gust Speed -    
Visibility 7 miles    
Events Fog    
T = Trace of Precipitation, MM = Missing Value Source: NWS Daily Summary

Daily Weather History Graph

Daily Weather History Graph

Search for Another Location

Airport or City:

Trip Planner

Search our weather history database for the weather conditions in past years. The results will help you decide how hot, cold, wet, or windy it might be!

Date:

Astronomy

Nov. 16, 2013 Rise Set
Actual Time 6:50 AM EST 5:16 PM EST
Civil Twilight 6:24 AM EST 5:43 PM EST
Nautical Twilight 5:54 AM EST 6:13 PM EST
Astronomical Twilight 5:25 AM EST 6:42 PM EST
Moon 4:49 PM EST (11/16) 5:48 AM EST (11/16)
Length of Visible Light 11h 18m
Length of Day
10h 26m
Waxing Gibbous, 99% of the Moon is Illuminated
Nov 16
Waxing Gibbous
Nov 17
Full
Nov 25
Last Quarter
Dec 2
New
Dec 9
First Quarter

Hourly Weather History & Observations

Time (EST) Temp. Dew Point Humidity Pressure Visibility Wind Dir Wind Speed Gust Speed Precip Events Conditions
12:15 AM 60.8 °F 60.8 °F 100% 30.20 in 4.0 mi Calm Calm - N/A   Light Drizzle
12:35 AM 60.8 °F 60.8 °F 100% 30.19 in 5.0 mi Calm Calm - N/A   Light Drizzle
12:55 AM 60.8 °F 60.8 °F 100% 30.19 in 5.0 mi Calm Calm - N/A   Light Drizzle
1:15 AM 60.8 °F 60.8 °F 100% 30.18 in 5.0 mi Calm Calm - N/A   Light Drizzle
1:35 AM 60.8 °F 60.8 °F 100% 30.18 in 4.0 mi Calm Calm - N/A   Light Drizzle
1:55 AM 60.8 °F 60.8 °F 100% 30.18 in 4.0 mi Calm Calm - N/A   Light Drizzle
2:15 AM 60.8 °F 60.8 °F 100% 30.18 in 4.0 mi Calm Calm - N/A   Light Drizzle
2:35 AM 59.0 °F 59.0 °F 100% 30.18 in 3.0 mi Calm Calm - N/A   Light Drizzle
2:55 AM 59.0 °F 59.0 °F 100% 30.18 in 3.0 mi North 3.5 mph - N/A   Overcast
3:15 AM 59.0 °F 59.0 °F 100% 30.18 in 4.0 mi Calm Calm - N/A   Overcast
3:35 AM 59.0 °F 59.0 °F 100% 30.18 in 3.0 mi Calm Calm - N/A   Mostly Cloudy
3:55 AM 59.0 °F 59.0 °F 100% 30.18 in 3.0 mi Calm Calm - N/A   Overcast
4:35 AM 59.0 °F 59.0 °F 100% 30.19 in 3.0 mi Calm Calm - N/A   Mostly Cloudy
4:55 AM 59.0 °F 59.0 °F 100% 30.18 in 3.0 mi Calm Calm - N/A   Partly Cloudy
5:15 AM 59.0 °F 59.0 °F 100% 30.18 in 3.0 mi Calm Calm - N/A   Partly Cloudy
5:35 AM 59.0 °F 59.0 °F 100% 30.18 in 3.0 mi Calm Calm - N/A   Clear
5:55 AM 59.0 °F 59.0 °F 100% 30.19 in 3.0 mi Calm Calm - N/A   Partly Cloudy
6:15 AM 59.0 °F 59.0 °F 100% 30.20 in 4.0 mi NNW 3.5 mph - N/A   Mostly Cloudy
6:35 AM 59.0 °F 59.0 °F 100% 30.20 in 5.0 mi Calm Calm - N/A   Scattered Clouds
6:55 AM 57.2 °F 57.2 °F 100% 30.20 in 3.0 mi Calm Calm - N/A   Clear
7:15 AM 57.2 °F 57.2 °F 100% 30.20 in 2.0 mi Calm Calm - N/A   Clear
7:35 AM 57.2 °F 57.2 °F 100% 30.21 in 0.2 mi Calm Calm - N/A Fog Fog
7:55 AM 57.2 °F 57.2 °F 100% 30.22 in 2.0 mi Calm Calm - N/A   Overcast
8:15 AM 60.8 °F 60.8 °F 100% 30.23 in 5.0 mi Calm Calm - N/A   Overcast
8:35 AM 60.8 °F 60.8 °F 100% 30.23 in 5.0 mi Calm Calm - N/A   Overcast
8:55 AM 60.8 °F 60.8 °F 100% 30.22 in 6.0 mi Calm Calm - N/A   Overcast
9:15 AM 62.6 °F 62.6 °F 100% 30.23 in 8.0 mi Calm Calm - N/A   Mostly Cloudy
9:35 AM 64.4 °F 64.4 °F 100% 30.22 in 9.0 mi Calm Calm - N/A   Partly Cloudy
9:55 AM 68.0 °F 68.0 °F 100% 30.21 in 10.0 mi NNE 3.5 mph - N/A   Clear
10:15 AM 69.8 °F 69.8 °F 100% 30.22 in 10.0 mi Calm Calm - N/A   Clear
10:35 AM 71.6 °F 71.6 °F 100% 30.22 in 10.0 mi ESE 3.5 mph - N/A   Mostly Cloudy
10:55 AM 71.6 °F 71.6 °F 100% 30.22 in 10.0 mi East 3.5 mph - N/A   Scattered Clouds
11:15 AM 73.4 °F 73.4 °F 100% 30.21 in 10.0 mi East 6.9 mph - N/A   Clear
11:35 AM 71.6 °F 71.6 °F 100% 30.21 in 10.0 mi East 5.8 mph - N/A   Clear
11:55 AM 73.4 °F 71.6 °F 94% 30.20 in 10.0 mi Calm Calm - N/A   Clear
12:15 PM 73.4 °F 71.6 °F 94% 30.19 in 10.0 mi East 5.8 mph - N/A   Clear
12:35 PM 73.4 °F 71.6 °F 94% 30.19 in 10.0 mi NE 3.5 mph - N/A   Clear
12:55 PM 73.4 °F 71.6 °F 94% 30.18 in 10.0 mi Calm Calm - N/A   Clear
1:15 PM 75.2 °F 71.6 °F 89% 30.17 in 10.0 mi East 5.8 mph - N/A   Clear
1:35 PM 75.2 °F 71.6 °F 89% 30.17 in 9.0 mi East 5.8 mph - N/A   Clear
1:55 PM 75.2 °F 71.6 °F 89% 30.16 in 10.0 mi East 4.6 mph - N/A   Scattered Clouds
2:15 PM 75.2 °F 71.6 °F 89% 30.16 in 9.0 mi East 4.6 mph - N/A   Mostly Cloudy
2:35 PM 77.0 °F 71.6 °F 83% 30.15 in 10.0 mi ESE 5.8 mph - N/A   Mostly Cloudy
2:55 PM 73.4 °F 69.8 °F 88% 30.16 in 10.0 mi Calm Calm - N/A   Mostly Cloudy
3:35 PM 71.6 °F 69.8 °F 94% 30.16 in 10.0 mi East 4.6 mph - N/A   Mostly Cloudy
3:55 PM 71.6 °F 69.8 °F 94% 30.16 in 10.0 mi ESE 3.5 mph - N/A   Scattered Clouds
4:15 PM 73.4 °F 69.8 °F 88% 30.16 in 10.0 mi Calm Calm - N/A   Clear
4:35 PM 71.6 °F 69.8 °F 94% 30.16 in 9.0 mi Calm Calm - N/A   Clear
4:55 PM 69.8 °F 69.8 °F 100% 30.16 in 9.0 mi Calm Calm - N/A   Clear
5:15 PM 66.2 °F 66.2 °F 100% 30.16 in 10.0 mi Calm Calm - N/A   Clear
5:35 PM 66.2 °F 66.2 °F 100% 30.16 in 10.0 mi Calm Calm - N/A   Clear
5:55 PM 64.4 °F 64.4 °F 100% 30.16 in 10.0 mi Calm Calm - N/A   Clear
6:15 PM 62.6 °F 62.6 °F 100% 30.17 in 10.0 mi Calm Calm - N/A   Clear
6:35 PM 62.6 °F 62.6 °F 100% 30.17 in 10.0 mi Calm Calm - N/A   Clear
6:55 PM 60.8 °F 60.8 °F 100% 30.17 in 10.0 mi Calm Calm - N/A   Clear
7:15 PM 60.8 °F 60.8 °F 100% 30.17 in 10.0 mi Calm Calm - N/A   Clear
7:35 PM 60.8 °F 60.8 °F 100% 30.17 in 10.0 mi Calm Calm - N/A   Clear
7:55 PM 59.0 °F 59.0 °F 100% 30.18 in 9.0 mi Calm Calm - N/A   Clear
8:15 PM 59.0 °F 59.0 °F 100% 30.18 in 9.0 mi Calm Calm - N/A   Clear
8:35 PM 59.0 °F 59.0 °F 100% 30.18 in 9.0 mi Calm Calm - N/A   Clear
8:55 PM 59.0 °F 59.0 °F 100% 30.19 in 9.0 mi Calm Calm - N/A   Clear
9:15 PM 57.2 °F 57.2 °F 100% 30.19 in 7.0 mi Calm Calm - N/A   Clear
9:35 PM 57.2 °F 57.2 °F 100% 30.19 in 7.0 mi Calm Calm - N/A   Clear
9:55 PM 57.2 °F 57.2 °F 100% 30.19 in 8.0 mi Calm Calm - N/A   Clear
10:35 PM 57.2 °F 57.2 °F 100% 30.20 in 8.0 mi Calm Calm - N/A   Clear
10:55 PM 57.2 °F 57.2 °F 100% 30.20 in 8.0 mi Calm Calm - N/A   Clear
11:15 PM 57.2 °F 57.2 °F 100% 30.20 in 9.0 mi Calm Calm - N/A   Clear
11:35 PM 57.2 °F 57.2 °F 100% 30.20 in 9.0 mi Calm Calm - N/A   Clear
11:55 PM 55.4 °F 55.4 °F 100% 30.20 in 10.0 mi Calm Calm - N/A   Clear